Weather in Ilyinka

Russia / Novosibirsk Oblast     54°31′34″N   79°14′21″E
temp.,
°C
wind,
m/s
gust,
m/s
humid.,
%
clouds,
%
prec.,
mm/h
press.,
hPa
HPBL,
m
1 march, mon
mon101:00−10ese61195100 0.6 1015388
04:00−8ese5995100 1.6 1010330
07:00−7ene4796100 2.9 1008183
10:00−6ne3596100 0.3 1007160
13:00−4ne2395100 0.6 1007200
16:00−4ne3496100 0.9 1006244
19:00−5nne4696100 2.3 1007237
22:00−8nne4696100 0.7 1008217
2 march, tue
tue201:00−11n339695 1.0 101053
04:00−14nnw239687 0.1 101255
07:00−17wnw239886 0.2 101421
10:00−18w239899 0.0 101648
13:00−15wsw239296 0.1 1017243
16:00−13sw2391100 0.0 1016320
19:00−14wsw1296100 0.1 101623
22:00−15sw129799 0.1 101620
3 march, wed
wed301:00−16sw129695 0.3 101520
04:00−16wsw229778 0.1 101620
07:00−16sw129785 0.3 101620
10:00−15ssw249682 0.1 1016142
13:00−12sw359282 0.1 1018393
16:00−10ssw5791100 0.1 1018535
19:00−14ssw51194100 0.1 1019374
22:00−15s6139499 0.0 1019344
4 march, thu
thu401:00−12s71294100 0.2 1018420
04:00−10ssw71394100 0.5 1016499
07:00−9ssw71393100 0.9 1016490
10:00−8ssw81492100 0.3 1014499
13:00−6ssw91494100 0.7 1014648
16:00−4ssw91493100 0.6 1012765
19:00−3ssw91692100 0.8 1011780
22:00−3ssw91694100 0.3 1010757
5 march, fri
fri501:00−3ssw9169398 0.6 1009595
04:00−5s81494100 0.5 1007472
07:00−5ssw71294100 1.0 1006424
10:00−4ssw71395100 0.8 1007561
13:00−3w81288100 1.4 1009844
16:00−6wsw7128259 0.0 1014758
19:00−8sw7148747 0.0 1018461
22:00−7ssw9178698 0.0 1016763